This demonstration page uses our WeatherBlox Daily Observations layout. Learn more.

Left ArrowRight Arrow

Hourly Observations for July 1, 2022

Temp ( °F °C ) Dew Point ( °F °C ) Humidity (%) Winds ( mph kmh ) Pressure ( in mb ) Visibility ( mi km ) Precip ( " mm )
12:53 am 00:53 Clear 52 11.1 45 7.2 77 77 Calm 30.09 1019 10 16 0.00 0.00
1:53 am 01:53 Clear 52 11.1 44 6.7 75 75 Calm 30.08 1019 10 16 0.00 0.00
2:53 am 02:53 Clear 49 9.4 44 6.7 83 83 Calm 30.07 1018 10 16 0.00 0.00
3:53 am 03:53 Clear 48 8.9 43 6.1 83 83 SW 6 9 30.06 1018 10 16 0.00 0.00
4:53 am 04:53 Clear 46 7.8 42 5.6 86 86 Calm 30.05 1018 10 16 0.00 0.00
5:53 am 05:53 Sunny 45 7.2 42 5.6 90 90 Calm 30.05 1018 10 16 0.00 0.00
6:53 am 06:53 Sunny 52 11.1 45 7.2 77 77 Calm 30.03 1017 10 16 0.00 0.00
7:53 am 07:53 Sunny 59 15 46 7.8 62 62 ENE 5 7 30.02 1017 10 16 0.00 0.00
8:53 am 08:53 Sunny 65 18.3 48 8.9 54 54 ENE 6 9 30.01 1016 10 16 0.00 0.00
9:53 am 09:53 Sunny 72 22.2 46 7.8 40 40 ENE 7 11 29.99 1016 10 16 0.00 0.00
10:53 am 10:53 Sunny 76 24.4 42 5.6 30 30 NE 3 6 29.99 1016 10 16 0.00 0.00
11:53 am 11:53 Sunny 77 25 42 5.6 29 29 SE 3 6 29.98 1015 10 16 0.00 0.00
12:53 pm 12:53 Sunny 80 26.7 42 5.6 26 26 ENE 6 9 29.97 1015 10 16 0.00 0.00
1:53 pm 13:53 Sunny 82 27.8 43 6.1 25 25 undefined N/A 29.95 1014 10 16 0.00 0.00
2:53 pm 14:53 Sunny 84 28.9 42 5.6 23 23 VRB 6 9 29.93 1014 10 16 0.00 0.00
3:53 pm 15:53 Sunny 85 29.4 42 5.6 22 22 E 7 11 29.92 1013 10 16 0.00 0.00
4:53 pm 16:53 Sunny 84 28.9 42 5.6 23 23 ENE 5 7 29.91 1013 10 16 0.00 0.00
5:53 pm 17:53 Sunny 85 29.4 43 6.1 23 23 SE 9 15 29.89 1012 10 16 0.00 0.00
6:53 pm 18:53 Partly Cloudy 84 28.9 40 4.4 21 21 VRB 3 6 29.87 1012 10 16 0.00 0.00
7:53 pm 19:53 Sunny 80 26.7 41 5 25 25 NE 15 24 29.87 1012 10 16 0.00 0.00
8:53 pm 20:53 Sunny 76 24.4 39 3.9 26 26 ENE 12 19 29.87 1012 10 16 0.00 0.00
9:53 pm 21:53 Clear 70 21.1 40 4.4 34 34 ENE 8 13 29.89 1012 10 16 0.00 0.00
10:53 pm 22:53 Clear 67 19.4 41 5 39 39 NE 8 13 29.90 1012 10 16 0.00 0.00
11:53 pm 23:53 Clear 65 18.3 40 4.4 40 40 NE 8 13 29.90 1013 10 16 0.00 0.00

Powered by AerisWeather